Regional Weather Roundup
Issued by NWS

Home | Current Version | Previous Version | Graphics & Text | Print | Product List | Glossary On
Versions: 1 2 3 4 5 6 7 8 9 10 11 12 13 14 15 16 17 18 19 20 21 22 23 24 25 26 27 28 29 30 31 32 33 34 35 36 37 38 39 40 41 42 43 44 45 46 47 48 49 50
000
ASUS45 KCYS 281610
RWRWY

WYOMING REGIONAL WEATHER ROUNDUP
NATIONAL WEATHER SERVICE CHEYENNE WY
1000 AM MDT THU MAY 28 2015

NOTE:  "FAIR" INDICATES FEW OR NO CLOUDS BELOW 12,000 FEET
WITH NO SIGNIFICANT WEATHER AND/OR OBSTRUCTIONS TO VISIBILITY.

WYZ001-281700-
YELLOWSTONE NATIONAL PARK

CITY           SKY/WX    TMP DP  RH WIND       PRES   REMARKS
LK YELLOWSTONE NOT AVBL
W YELLOWSTONE  NOT AVBL

$$
WYZ002>013-054>058-071-098>099-281700-
NORTHERN WYOMING

CITY           SKY/WX    TMP DP  RH WIND       PRES   REMARKS
JACKSON        NOT AVBL
CODY           CLOUDY    52  46  82 NE9       30.09R
GREYBULL       PTSUNNY   62  47  57 VRB3      30.03S
WORLAND        CLOUDY    59  49  69 NW5       30.04R
SHERIDAN       CLOUDY    55  51  86 NW6       30.04R
BUFFALO        LGT RAIN  55  48  77 N16G28    30.05S
GILLETTE       PTSUNNY   59  51  75 N9        30.01S
HULETT         CLOUDY    59  54  82 W3        30.02R
NEWCASTLE      FAIR      59  50  72 NW7       30.01S

$$
WYZ014>020-022>026-101>103-281700-
CENTRAL WYOMING

CITY           SKY/WX    TMP DP  RH WIND       PRES   REMARKS
BIG PINEY      CLOUDY    47  36  65 VRB5      30.18S
PINEDALE       PTSUNNY   50  36  57 W6        30.18R
DUBOIS         HVY RAIN  43  36  75 W23G40    30.13R
LANDER         FAIR      59  40  49 VRB7      30.06F
RIVERTON       FAIR      58  43  57 VRB3      30.07F
CASPER         FAIR      59  45  59 SW9       30.05F
DOUGLAS        FAIR      60  45  57 W3        30.04S

$$
WYZ021-027>030-104>119-281700-
SOUTHERN WYOMING

CITY           SKY/WX    TMP DP  RH WIND       PRES   REMARKS
EVANSTON       FAIR      47  41  80 S12       30.20S
KEMMERER       PTSUNNY   52  37  58 SW13      30.20S
FORT BRIDGER   SUNNY     46  43  87 SW16G23   30.24R THUNDER
ROCK SPRINGS   FAIR      52  41  66 SW10      30.17F
DIXON          CLOUDY    54  41  62 W3        30.20F
RAWLINS        FAIR      54  42  64 SW16      30.16S
SARATOGA       CLOUDY    48  43  81 W10       30.18S
LARAMIE        FAIR      54  38  54 W16       30.14F
CHEYENNE       FAIR      64  44  48 S8        30.07F
TORRINGTON     FAIR      68  46  45 W16G23    29.99F
PINE BLUFFS    FAIR      64  48  55 NW8       30.05S

$$


USA.gov is the U.S. government's official web portal to all federal, state and local government web resources and services.